Location: Hormuz
(27.0871°N, 56.4580°E)
Time: 12:06:04
(UTC+04:30)

ISS - Pass Details

Date: 24 June 2021
Orbit: 419 x 421 km, 51.6° (Epoch: 04 August)

Event Time Altitude Azimuth Distance (km) Brightness Sun altitude
Exits shadow 04:20:45 32° 169° (SSE) 731 -2.8 -17.7°
Maximum altitude 04:21:39 40° 129° (SE) 624 -2.9 -17.6°
Drops below altitude 10° 04:24:49 10° 58° (ENE) 1,494 0.3 -17.0°
Sets 04:26:59 0° 50° (NE) 2,359 1.9 -16.7°
